$DATE,$TIME,DM0600B,DM0602B,DM0604B,DM0614B,DM0616B,DM0618B,DM0624B,DM0628B,DM0630B,DM0634B,DM0606B,DM0608B,DM0610B
11/10/94,00:00:00,41,47,45,48,0,0,0,60,131,0,7,10,7
11/10/94,00:05:00,41,39,39,39,19,18,36,61,130,0,7,13,7
11/10/94,00:10:00,49,63,41,37,20,19,36,60,131,0,7,18,6
11/10/94,00:15:00,40,31,30,25,21,19,40,60,131,0,6,14,6
11/10/94,00:20:00,39,36,40,37,17,16,33,61,131,0,7,11,6
11/10/94,00:25:00,43,34,34,32,32,27,55,61,133,0,7,9,6
11/10/94,00:30:00,53,30,43,36,0,0,0,61,135,0,7,7,6
11/10/94,00:35:00,37,49,51,53,0,0,0,61,135,0,7,9,6
11/10/94,00:40:00,59,44,47,40,0,0,0,61,136,0,7,20,6
11/10/94,00:45:00,55,48,45,47,0,0,0,61,135,0,8,17,6
11/10/94,00:50:00,54,48,38,50,0,0,0,61,136,0,7,13,6
11/10/94,00:55:00,47,47,47,49,0,0,0,61,135,0,7,10,6
11/10/94,01:00:00,46,30,46,41,72,68,134,61,136,0,7,10,7
11/10/94,01:05:00,59,42,48,39,26,24,49,60,128,0,7,14,7
11/10/94,01:10:00,41,43,38,33,29,28,73,60,127,0,6,12,6
11/10/94,01:15:00,47,39,38,41,0,0,0,60,127,0,6,10,6
11/10/94,01:20:00,37,40,43,38,0,0,0,60,128,0,7,8,6
11/10/94,01:25:00,46,58,38,46,0,0,0,61,128,0,6,12,6
11/10/94,01:30:00,38,28,51,38,0,0,0,61,128,0,6,22,6
11/10/94,01:35:00,52,53,43,40,0,0,0,61,127,0,6,16,6
11/10/94,01:40:00,29,42,42,43,58,46,104,60,125,0,6,12,6
11/10/94,01:45:00,47,39,41,50,0,0,0,60,134,0,6,10,6
11/10/94,01:50:00,37,35,48,42,0,0,0,61,131,0,7,9,6
11/10/94,01:55:00,38,46,46,57,0,0,0,61,131,0,8,15,6
11/10/94,02:00:00,50,42,40,45,58,37,91,60,131,0,7,20,6
11/10/94,02:05:00,38,46,31,39,58,38,83,60,130,0,7,14,7
11/10/94,02:10:00,43,32,37,45,0,0,0,61,132,0,7,11,7
11/10/94,02:15:00,32,58,49,48,0,0,0,61,133,0,7,9,6
11/10/94,02:20:00,51,41,47,41,60,52,108,60,148,0,7,17,6
11/10/94,02:25:00,49,48,46,42,0,0,0,60,124,0,6,15,6
11/10/94,02:30:00,42,63,40,47,0,0,0,60,125,0,7,12,6
11/10/94,02:35:00,51,33,43,36,0,0,0,60,67,0,7,10,5
11/10/94,02:40:00,43,47,42,41,0,0,0,60,59,0,6,9,6
11/10/94,02:45:00,41,34,40,30,0,0,0,60,56,0,6,8,6
11/10/94,02:50:00,39,42,36,39,0,0,0,60,59,0,7,7,6
11/10/94,02:55:00,36,38,38,36,0,0,0,60,63,0,7,7,6
11/10/94,03:00:00,47,46,36,28,0,0,0,60,61,0,7,6,6
11/10/94,03:05:00,39,40,34,32,0,0,0,60,61,0,6,6,6
11/10/94,03:10:00,38,48,32,35,0,0,0,60,61,0,6,6,7
11/10/94,03:15:00,44,44,39,40,0,0,0,60,61,0,6,6,7
11/10/94,03:20:00,41,49,33,38,0,0,0,60,58,0,6,7,6
11/10/94,03:25:00,54,7,4,48,0,0,0,60,60,0,6,6,6
11/10/94,03:30:00,53,1,10,49,0,0,0,61,78,0,6,7,7
11/10/94,03:35:00,48,7,19,51,0,0,0,61,80,0,6,18,6
11/10/94,03:40:00,43,3,17,41,0,0,0,61,61,0,6,20,6
11/10/94,03:45:00,41,0,12,32,43,50,89,60,58,0,6,14,6
11/10/94,03:50:00,48,0,7,39,0,0,0,60,57,0,6,11,6
11/10/94,03:55:00,50,12,0,47,0,0,0,61,60,0,7,10,6
11/10/94,04:00:00,35,0,20,39,41,48,86,61,106,0,7,11,7
11/10/94,04:05:00,40,0,2,39,42,48,86,60,57,0,7,17,6
11/10/94,04:10:00,47,0,9,41,0,0,0,61,58,0,7,13,6
11/10/94,04:15:00,57,5,0,43,0,0,0,61,59,0,7,10,7
11/10/94,04:20:00,41,0,11,47,0,0,0,61,59,0,7,10,7
11/10/94,04:25:00,65,0,13,39,39,46,82,60,97,0,6,19,6
11/10/94,04:30:00,38,4,7,35,37,45,80,60,59,0,6,16,6
11/10/94,04:35:00,55,0,5,35,0,0,0,60,57,0,7,12,6
11/10/94,04:40:00,46,0,12,51,0,0,0,61,107,0,7,10,5
11/10/94,04:45:00,36,0,11,43,35,43,76,61,104,0,6,16,6
11/10/94,04:50:00,43,5,1,36,35,41,75,60,61,0,6,18,6
11/10/94,04:55:00,29,2,0,28,36,42,76,60,57,0,6,13,6
11/10/94,05:00:00,50,0,5,39,0,0,0,60,58,0,7,11,6
11/10/94,05:05:00,43,0,9,47,0,0,0,61,41,0,7,9,6
11/10/94,05:10:00,61,4,1,43,0,0,0,61,41,0,7,8,6
11/10/94,05:15:00,46,1,6,48,0,0,0,61,41,0,7,11,6
11/10/94,05:20:00,47,1,3,51,0,0,0,61,41,0,6,19,7
11/10/94,05:25:00,48,24,0,45,0,0,0,61,41,0,7,15,7
11/10/94,05:30:00,36,2,9,48,0,0,0,61,41,0,6,11,6
11/10/94,05:35:00,48,0,0,49,0,0,0,61,41,0,7,9,6
11/10/94,05:40:00,37,2,20,47,0,0,0,61,41,0,7,8,6
11/10/94,05:45:00,52,5,9,52,0,0,0,61,41,0,6,7,6
11/10/94,05:50:00,40,0,10,42,0,0,0,61,41,0,6,7,6
11/10/94,05:55:00,39,4,15,49,0,0,0,61,41,0,6,14,6
11/10/94,06:00:00,55,21,11,44,0,0,0,61,41,0,6,19,6
11/10/94,06:05:00,46,0,7,45,0,0,0,61,41,0,7,14,6
11/10/94,06:10:00,65,3,11,50,0,0,0,60,41,0,7,11,6
11/10/94,06:15:00,54,29,4,49,0,0,0,60,43,0,7,9,6
11/10/94,06:20:00,59,15,1,42,0,0,0,60,41,0,7,8,6
11/10/94,06:25:00,44,24,10,49,0,0,0,60,41,0,7,8,7
11/10/94,06:30:00,45,12,13,48,0,0,0,61,48,0,7,7,7
11/10/94,06:35:00,58,9,3,48,0,0,0,61,49,0,7,9,7
11/10/94,06:40:00,48,33,15,49,0,0,0,61,49,0,7,19,7
11/10/94,06:45:00,50,29,1,52,0,0,0,60,48,0,7,16,6
11/10/94,06:50:00,45,32,0,51,0,0,0,61,49,0,7,13,6
11/10/94,06:55:00,38,0,17,49,0,0,0,61,49,0,6,10,6
11/10/94,07:00:00,50,5,9,54,0,0,0,61,49,0,7,9,6
11/10/94,07:05:00,40,0,4,48,0,0,0,61,49,0,7,8,6
11/10/94,07:10:00,33,0,5,43,0,0,0,61,41,0,8,18,6
11/10/94,07:15:00,46,4,5,46,0,0,0,61,41,0,7,17,6
11/10/94,07:20:00,32,51,38,42,0,0,0,60,41,0,7,13,6
11/10/94,07:25:00,35,46,31,33,0,0,0,60,40,0,7,10,6
11/10/94,07:30:00,32,52,36,37,0,0,0,60,40,0,7,9,7
11/10/94,07:35:00,45,47,32,30,0,0,0,60,40,0,7,7,7
11/10/94,07:40:00,33,24,33,28,0,0,0,60,40,0,7,7,7
11/10/94,07:45:00,42,34,34,33,0,0,0,60,57,0,7,6,7
11/10/94,07:50:00,46,39,40,38,0,0,0,60,57,0,6,6,7
11/10/94,07:55:00,40,36,32,35,0,0,0,60,57,0,6,6,7
11/10/94,08:00:00,42,47,31,30,0,0,0,60,57,0,7,6,6
11/10/94,08:05:00,41,36,37,33,0,0,0,60,57,0,7,5,6
11/10/94,08:10:00,45,34,41,37,0,0,0,60,57,0,7,6,6
11/10/94,08:15:00,39,35,37,33,0,0,0,60,57,0,7,6,6
11/10/94,08:20:00,47,49,34,35,0,0,0,60,57,0,7,6,6
11/10/94,08:25:00,32,29,30,31,0,0,0,60,57,0,7,6,6
11/10/94,08:30:00,35,29,31,30,0,0,0,61,57,0,6,6,6
11/10/94,08:35:00,26,48,36,36,0,0,0,57,57,0,7,6,8
11/10/94,08:40:00,33,38,35,33,0,0,0,57,57,0,6,6,7
11/10/94,08:45:00,40,31,31,38,0,0,0,57,57,0,6,6,7
11/10/94,08:50:00,45,64,22,42,0,0,0,57,57,0,6,5,6
11/10/94,08:55:00,35,41,36,38,0,0,0,57,57,0,6,6,6
11/10/94,09:00:00,48,46,39,34,0,0,0,57,57,0,6,5,6
11/10/94,09:05:00,36,39,41,37,0,0,0,57,57,0,6,6,6
11/10/94,09:10:00,43,39,30,37,0,0,0,57,57,0,6,6,6
11/10/94,09:15:00,41,53,47,35,0,0,0,57,57,0,7,6,6
11/10/94,09:20:00,35,42,33,36,0,0,0,57,57,0,7,6,6
11/10/94,09:25:00,42,45,28,37,0,0,0,57,57,0,6,6,6
11/10/94,09:30:00,42,41,35,39,0,0,0,57,57,0,6,6,6
11/10/94,09:35:00,48,40,34,30,0,0,0,57,57,0,6,6,6
11/10/94,09:40:00,34,40,38,32,0,0,0,57,49,0,6,6,7
11/10/94,09:45:00,42,35,35,34,0,0,0,57,49,0,6,5,7
11/10/94,09:50:00,39,23,36,38,0,0,0,57,48,0,6,6,7
11/10/94,09:55:00,31,36,34,28,0,0,0,57,49,0,6,6,6
11/10/94,10:00:00,44,28,31,36,0,0,0,57,57,0,5,6,6
11/10/94,10:05:00,36,25,32,30,0,0,0,57,41,0,6,6,6
11/10/94,10:10:00,41,42,34,31,0,0,0,57,41,0,6,6,6
11/10/94,10:15:00,37,34,32,25,0,0,0,57,41,0,6,6,6
11/10/94,10:20:00,35,21,30,30,0,0,0,57,41,0,7,6,6
11/10/94,10:25:00,41,39,34,25,0,0,0,57,56,0,7,6,6
11/10/94,10:30:00,52,31,26,33,0,0,0,57,41,0,6,5,6
11/10/94,10:35:00,43,31,34,31,0,0,0,57,41,0,6,6,6
11/10/94,10:40:00,37,30,33,32,0,0,0,57,41,0,6,5,6
11/10/94,10:45:00,41,37,27,39,0,0,0,57,41,0,7,5,7
11/10/94,10:50:00,44,28,37,28,0,0,0,57,41,0,6,5,7
11/10/94,10:55:00,47,22,29,30,0,0,0,57,41,0,6,6,6
11/10/94,11:00:00,42,28,33,34,0,0,0,57,41,0,6,6,6
11/10/94,11:05:00,44,22,33,25,0,0,0,57,41,0,6,6,6
11/10/94,11:10:00,35,20,42,26,0,0,0,57,41,0,6,5,6
11/10/94,11:15:00,43,26,29,28,0,0,0,57,41,0,6,5,6
11/10/94,11:20:00,34,33,32,23,0,0,0,57,41,0,7,5,5
11/10/94,11:25:00,43,27,40,30,0,0,0,57,41,0,7,5,5
11/10/94,11:30:00,37,6,0,41,0,0,0,57,41,0,6,5,5
11/10/94,11:35:00,33,0,0,30,0,0,0,57,41,0,6,5,5
11/10/94,11:40:00,52,0,14,43,0,0,0,57,41,0,6,14,5
11/10/94,11:45:00,37,0,18,42,0,0,0,57,41,0,6,17,5
11/10/94,11:50:00,38,3,19,49,0,0,0,57,41,0,6,13,6
11/10/94,11:55:00,51,14,4,53,0,0,0,57,41,0,6,10,6
11/10/94,12:00:00,48,19,0,55,0,0,0,57,41,0,6,9,6
11/10/94,12:05:00,34,8,12,53,0,0,0,57,41,0,6,8,6
11/10/94,12:10:00,39,0,7,43,0,0,0,57,41,0,7,8,6
11/10/94,12:15:00,46,12,2,52,0,0,0,57,41,0,6,18,6
11/10/94,12:20:00,59,1,0,42,0,0,0,57,41,0,6,15,6
11/10/94,12:25:00,52,0,7,44,0,0,0,57,41,0,8,12,6
11/10/94,12:30:00,58,0,3,51,0,0,0,57,41,0,7,9,6
11/10/94,12:35:00,39,0,23,44,0,0,0,57,41,0,7,8,6
11/10/94,12:40:00,44,0,30,51,0,0,0,58,41,0,7,10,6
11/10/94,12:45:00,38,0,7,38,0,0,0,57,41,0,7,19,6
11/10/94,12:50:00,45,0,7,49,0,0,0,57,41,0,6,15,6
11/10/94,12:55:00,55,0,0,47,0,0,0,57,41,0,7,12,7
11/10/94,13:00:00,40,0,1,45,0,0,0,57,41,0,6,10,7
11/10/94,13:05:00,45,1,14,47,0,0,0,58,41,0,7,8,7
11/10/94,13:10:00,41,17,9,52,0,0,0,58,41,0,6,10,7
11/10/94,13:15:00,45,0,7,42,0,0,0,58,41,0,7,20,6
11/10/94,13:20:00,57,9,14,49,0,0,0,58,41,0,6,16,6
11/10/94,13:25:00,51,3,18,53,0,0,0,58,41,0,6,12,6
11/10/94,13:30:00,39,0,12,45,0,0,0,58,41,0,7,10,6
11/10/94,13:35:00,52,0,6,46,0,0,0,58,41,0,7,8,6
11/10/94,13:40:00,55,5,9,46,0,0,0,58,41,0,7,8,6
11/10/94,13:45:00,43,1,11,51,0,0,0,58,41,0,7,18,6
11/10/94,13:50:00,48,4,5,50,0,0,0,58,41,0,6,17,6
11/10/94,13:55:00,45,0,7,47,0,0,0,58,41,0,7,12,6
11/10/94,14:00:00,48,12,1,47,0,0,0,58,41,0,7,10,7
11/10/94,14:05:00,37,4,2,50,0,0,0,58,41,0,7,9,7
11/10/94,14:10:00,43,0,11,53,0,0,0,57,41,0,7,8,7
11/10/94,14:15:00,39,3,4,49,0,0,0,57,41,0,6,7,7
11/10/94,14:20:00,43,9,16,53,0,0,0,57,41,0,7,6,6
11/10/94,14:25:00,37,0,1,51,0,0,0,57,41,0,7,9,6
11/10/94,14:30:00,59,20,5,49,0,0,0,57,41,0,7,19,6
11/10/94,14:35:00,45,6,0,46,0,0,0,57,41,0,7,15,6
11/10/94,14:40:00,55,8,5,47,0,0,0,57,41,0,7,11,6
11/10/94,14:45:00,44,4,9,40,0,0,0,57,41,0,7,9,6
11/10/94,14:50:00,65,31,1,47,0,0,0,57,41,0,6,8,6
11/10/94,14:55:00,58,28,0,45,0,0,0,57,41,0,6,7,6
11/10/94,15:00:00,60,30,7,43,0,0,0,57,41,0,7,7,6
11/10/94,15:05:00,48,11,8,46,0,0,0,57,41,0,7,6,7
11/10/94,15:10:00,53,8,2,45,0,0,0,57,41,0,6,6,7
11/10/94,15:15:00,59,20,7,33,0,0,0,57,41,0,6,6,7
11/10/94,15:20:00,57,16,4,45,0,0,0,57,41,0,7,6,7
11/10/94,15:25:00,57,31,36,39,0,0,0,56,40,0,7,6,7
11/10/94,15:30:00,52,55,38,27,0,0,0,56,40,0,7,6,7
11/10/94,15:35:00,49,42,25,31,0,0,0,56,40,0,7,6,6
11/10/94,15:40:00,57,41,33,31,0,0,0,56,40,0,8,6,6
11/10/94,15:45:00,56,40,41,31,0,0,0,56,40,0,7,6,6
11/10/94,15:50:00,45,46,24,37,0,0,0,56,40,0,7,6,6
11/10/94,15:55:00,59,40,33,31,0,0,0,56,40,0,7,5,6
11/10/94,16:00:00,45,50,36,31,0,0,0,56,40,0,7,5,6
11/10/94,16:05:00,46,51,29,32,0,0,0,57,40,0,7,5,6
11/10/94,16:10:00,39,38,30,36,0,0,0,56,41,0,7,5,7
11/10/94,16:15:00,45,50,40,33,0,0,0,56,40,0,7,5,7
11/10/94,16:20:00,48,44,34,34,0,0,0,56,40,0,7,6,7
11/10/94,16:25:00,55,53,26,35,0,0,0,56,40,0,6,6,7
11/10/94,16:30:00,52,42,31,34,0,0,0,56,40,0,6,6,6
11/10/94,16:35:00,44,61,36,33,0,0,0,56,40,0,6,6,6
11/10/94,16:40:00,51,41,34,34,0,0,0,59,48,0,7,6,6
11/10/94,16:45:00,46,41,31,35,0,0,0,59,48,0,7,6,6
11/10/94,16:50:00,50,44,30,33,0,0,0,60,48,0,7,6,6
11/10/94,16:55:00,54,42,38,36,0,0,0,60,48,0,7,6,6
11/10/94,17:00:00,51,49,34,30,0,0,0,56,40,0,6,6,6
11/10/94,17:05:00,47,48,33,36,0,0,0,56,40,0,7,6,6
11/10/94,17:10:00,57,51,32,33,0,0,0,56,40,0,7,6,6
11/10/94,17:15:00,56,44,30,31,0,0,0,56,40,0,7,6,7
11/10/94,17:20:00,46,56,32,32,0,0,0,56,49,0,6,7,7
11/10/94,17:25:00,42,38,30,34,0,0,0,60,57,0,6,7,7
11/10/94,17:30:00,59,43,40,36,0,0,0,60,57,0,6,7,7
11/10/94,17:35:00,53,43,39,36,0,0,0,60,57,0,6,6,7
11/10/94,17:40:00,52,44,40,25,0,0,0,56,40,0,6,6,7
11/10/94,17:45:00,54,51,40,31,0,0,0,56,40,0,7,6,7
11/10/94,17:50:00,37,50,29,33,0,0,0,57,40,0,7,6,6
11/10/94,17:55:00,45,48,39,34,0,0,0,56,40,0,7,6,6
11/10/94,18:00:00,47,51,33,34,0,0,0,57,40,0,7,6,6
11/10/94,18:05:00,60,35,36,35,0,0,0,57,40,0,7,6,6
11/10/94,18:10:00,48,44,31,31,0,0,0,56,40,0,7,6,6
11/10/94,18:15:00,51,51,37,35,0,0,0,57,40,0,7,7,6
11/10/94,18:20:00,57,46,33,37,0,0,0,56,40,0,7,7,7
11/10/94,18:25:00,49,55,27,30,0,0,0,56,40,0,7,6,7
11/10/94,18:30:00,38,39,33,29,0,0,0,56,41,0,6,6,7
11/10/94,18:35:00,54,48,29,33,0,0,0,56,40,0,7,6,7
11/10/94,18:40:00,43,42,29,35,0,0,0,56,41,0,7,6,6
11/10/94,18:45:00,48,55,33,33,0,0,0,56,40,0,7,6,6
11/10/94,18:50:00,44,42,41,35,0,0,0,56,40,0,8,6,6
11/10/94,18:55:00,55,48,33,32,0,0,0,56,40,0,7,6,6
11/10/94,19:00:00,39,50,32,37,0,0,0,56,40,0,7,6,6
11/10/94,19:05:00,43,50,44,31,0,0,0,56,40,0,7,5,6
11/10/94,19:10:00,53,49,37,36,0,0,0,56,40,0,7,6,6
11/10/94,19:15:00,45,53,30,32,0,0,0,56,40,0,7,6,6
11/10/94,19:20:00,41,39,40,37,0,0,0,56,40,0,7,6,6
11/10/94,19:25:00,51,48,34,35,0,0,0,56,40,0,7,5,6
11/10/94,19:30:00,47,44,37,35,0,0,0,56,40,0,7,5,7
11/10/94,19:35:00,,,,,,,,,,,,,
11/10/94,19:40:00,,,,,,,,,,,,,
11/10/94,19:45:00,,,,,,,,,,,,,
11/10/94,19:50:00,,,,,,,,,,,,,
11/10/94,19:55:00,,,,,,,,,,,,,
11/10/94,20:00:00,,,,,,,,,,,,,
11/10/94,20:05:00,,,,,,,,,,,,,
11/10/94,20:10:00,,,,,,,,,,,,,
11/10/94,20:15:00,,,,,,,,,,,,,
11/10/94,20:20:00,,,,,,,,,,,,,
11/10/94,20:25:00,,,,,,,,,,,,,
11/10/94,20:30:00,,,,,,,,,,,,,
11/10/94,20:35:00,,,,,,,,,,,,,
11/10/94,20:40:00,,,,,,,,,,,,,
11/10/94,20:45:00,,,,,,,,,,,,,
11/10/94,20:50:00,61,45,46,37,0,0,0,60,76,0,8,6,6
11/10/94,20:55:00,61,47,39,37,0,0,0,60,76,0,7,6,6
11/10/94,21:00:00,62,49,45,40,0,0,0,60,75,0,7,6,6
11/10/94,21:05:00,57,50,47,43,0,0,0,60,77,0,7,6,6
11/10/94,21:10:00,69,19,17,50,0,0,0,61,78,0,6,6,6
11/10/94,21:15:00,69,10,18,48,0,0,0,60,78,0,7,6,6
11/10/94,21:20:00,70,14,24,51,0,0,0,61,80,0,7,6,6
11/10/94,21:25:00,69,16,23,52,0,0,0,61,82,0,7,6,6
11/10/94,21:30:00,72,16,19,54,0,0,0,61,85,0,7,6,6
11/10/94,21:35:00,67,13,22,54,0,0,0,61,88,0,7,11,7
11/10/94,21:40:00,72,12,23,55,0,0,0,61,91,0,7,18,7
11/10/94,21:45:00,72,15,23,55,0,0,0,61,92,0,7,14,7
11/10/94,21:50:00,70,14,21,55,0,0,0,61,96,0,7,11,6
11/10/94,21:55:00,71,12,21,53,0,0,0,61,58,0,8,9,6
11/10/94,22:00:00,59,7,8,52,0,0,0,61,58,0,7,8,6
11/10/94,22:05:00,63,13,10,52,0,0,0,61,57,0,7,8,6
11/10/94,22:10:00,46,6,10,52,0,0,0,61,63,0,7,7,6
11/10/94,22:15:00,55,4,12,49,0,0,0,61,59,0,6,12,6
11/10/94,22:20:00,55,12,11,54,0,0,0,61,62,0,7,19,6
11/10/94,22:25:00,68,18,9,55,0,0,0,61,103,0,7,14,6
11/10/94,22:30:00,62,18,19,61,0,0,0,61,98,0,7,12,6
11/10/94,22:35:00,64,8,18,57,48,43,89,61,101,0,7,10,6
11/10/94,22:40:00,52,3,4,52,35,32,64,61,87,0,7,18,7
11/10/94,22:45:00,61,14,6,45,34,31,65,61,79,0,6,15,7
11/10/94,22:50:00,68,19,12,47,0,0,0,61,77,0,7,11,7
11/10/94,22:55:00,61,15,17,47,0,0,0,61,57,0,7,9,7
11/10/94,23:00:00,66,10,16,48,0,0,0,61,57,0,7,8,7
11/10/94,23:05:00,68,17,15,51,0,0,0,61,57,0,7,7,6
11/10/94,23:10:00,67,15,19,49,0,0,0,61,53,0,7,6,6
11/10/94,23:15:00,58,18,9,53,0,0,0,61,53,0,7,6,6
11/10/94,23:20:00,68,11,7,48,0,0,0,61,53,0,7,6,6
11/10/94,23:25:00,51,15,14,50,0,0,0,61,53,0,7,5,6
11/10/94,23:30:00,41,14,6,47,0,0,0,61,53,0,7,8,6
11/10/94,23:35:00,61,19,13,50,0,0,0,61,53,0,7,18,6
11/10/94,23:40:00,58,23,14,52,0,0,0,61,56,0,7,14,6
11/10/94,23:45:00,59,20,11,52,0,0,0,61,63,0,7,12,7
11/10/94,23:50:00,47,2,24,48,0,0,0,61,61,0,7,9,7
11/10/94,23:55:00,37,12,4,50,0,0,0,61,61,0,7,8,7
11/11/94,00:00:00,62,25,16,54,0,0,0,61,63,0,8,7,7
